STARLINK-1892, 46743

Orbit data source: Space-Track

STARLINK-1892, 46743 is a payload satellite owned by SpaceX/Seattle (US) in LEO that was launched on Sat, 24 Oct 2020 UTC via an FALCON 9 launch vehicle from the Air Force Eastern Test Range (AFETR). Payload-class satellites include a variety of spacecraft equipped with specific instruments for various scientific and technological missions. These include communications satellites like Starlink; space stations such as the ISS; scientific satellites like the Hubble; Earth observation satellites from companies like Planet Labs, Umbra, and HawkEye 360; GPS; miniature CubeSats for education and research; and military/defense satellites.

Loading next visibility...
Identifier
46743, 2020-074E
Orbit
LEO
Country
Flag of USUS
Related business
Manufacturer
SpaceX/Seattle
Mission
Operational Commercial Communications
Bus & Motor
STARLINK, Unknown motor
Mass
260 kg wet, ~248 kg dry
Launch date (UTC)
2020-10-24 (5 years ago)
Launch vehicle
FALCON 9
Launch site
Air Force Eastern Test Range (AFETR)
Object type
Payload
Rocket body
Debris
Shape & HBR
Box + 1 Pan, 4.4 m
Radar Cross Section
13.562 m², Large (>1 m²)

Expand to show TLE details & history
Last TLE update: 1 day ago

TLE from 1 day ago
0 STARLINK-1892
1 46743U 20074E   25260.03132391 -.00001180  00000-0 -60352-4 0  9996
2 46743  53.0564  21.2028 0001344  98.9505 261.1636 15.06393411270504
Epoch: 2025-09-17T00:45Z
TLE epoch observation values (Epoch: 2025-09-17T00:45:06.385Z)
Latitude
-0.00005°
Longitude
13.71304°
Altitude
548.254 km
Speed
7.589 km/s
True Right ascension
01h 24m 48s
True Declination
0° 00' 00"
Sunlit
Object was in full shadow at epoch
Visualization orbit readout
Latitude
Unknown
Longitude
Unknown
Altitude
Unknown
Speed
Unknown
Apparent Right ascension
Unknown
Apparent Declination
Unknown
Sunlit
N/A
Visualization observer readout
Local Sidereal Time
19:12:31
Azimuth
Unknown
Elevation
Unknown
Doppler factor
Unknown
Orbital elements
Apogee altitude
548.433 km
Perigee altitude
546.571 km
Semi-major axis
6,925.639 km
Eccentricity
0.00013
Inclination
53.0564°
RAAN
21.2028°
Arg. of periapsis
98.9505°
True anomaly
261.14838°
Mean anomaly
261.1636°
Eccentric anomaly
261.15599°
Mean motion
3.76577 °/min
Orbital period
95.6 mins
BSTAR
-0.000060352
Loading maneuver chart data...
Computing Atmospheric mass density...

Documentation

Showing up to 5 results
|